Location: Newark
(41.0000°N, 28.9500°W)
Time: 12:53:59
(UTC+00:00)

N. Korean satellite - Visible Passes

Search period start: 26 January 2020 00:00
Search period end: 05 February 2020 00:00
Orbit: 454 x 507 km, 97.2° (Epoch: 25 January)

Date Brightness Start Highest point End Pass type
(mag) Time Alt. Az. Time Alt. Az. Time Alt. Az.
26 Jan 9.4 06:55:40 10° NE 06:58:15 19° E 07:00:52 10° SE visible
26 Jan 7.6 08:28:36 10° NNW 08:31:36 25° WNW 08:34:38 10° SW visible
27 Jan 6.6 08:02:42 10° N 08:06:14 54° WNW 08:09:47 10° SSW visible
28 Jan 6.9 07:37:10 10° NNE 07:40:45 67° E 07:44:23 10° S visible
28 Jan 9.6 19:46:41 10° SW 19:49:10 19° W 19:51:39 10° NW visible
29 Jan 8.6 07:11:58 10° NNE 07:15:12 30° E 07:18:27 10° SSE visible
30 Jan 9.8 06:47:24 10° NE 06:49:34 15° E 06:51:44 10° SE visible
30 Jan 7.3 08:19:46 10° N 08:23:02 32° WNW 08:26:19 10° SW visible
31 Jan 6.5 07:53:59 10° N 07:57:37 71° WNW 08:01:16 10° SSW visible
31 Jan 10.1 20:04:55 10° WSW 20:06:08 11° W 20:07:21 10° WNW visible
01 Feb 7.5 07:28:33 10° NNE 07:32:07 51° E 07:35:42 10° S visible
01 Feb 9.3 19:37:36 10° SSW 19:40:26 24° W 19:43:17 10° NW visible
02 Feb 9.1 07:03:30 10° NE 07:06:32 24° E 07:09:34 10° SSE visible
02 Feb 7.9 08:37:00 10° NNW 08:39:46 21° WNW 08:42:34 10° WSW visible
03 Feb 10.1 06:39:23 10° ENE 06:40:51 12° E 06:42:20 10° ESE visible
03 Feb 7.0 08:10:57 10° N 08:14:25 41° WNW 08:17:54 10° SW visible
04 Feb 6.6 07:45:18 10° NNE 07:48:58 88° ESE 07:52:40 10° SSW visible
04 Feb 9.9 19:55:20 10° SW 19:57:22 15° W 19:59:25 10° NW visible
